Louisville, KY

1:19 AM EDT on August 31, 2016 (GMT -0400)
Louisville International-Standiford

Weather History for KSDF - June, 2013

Change the Weather History Date:

Thursday, June 13, 2013

  Actual Average Record
Temperature  
Mean Temperature 76 °F 75 °F  
Max Temperature 84 °F 85 °F 96 °F (1902)
Min Temperature 68 °F 66 °F 46 °F (1985)
Degree Days  
Heating Degree Days 0 0  
Month to date heating degree days 0 1  
Since 1 June heating degree days 0 1  
Since 1 July heating degree days 4115 4093  
Cooling Degree Days 11 10  
Month to date cooling degree days 115 114  
Year to date cooling degree days 343 288  
Since 1 June cooling degree days 115 114  
Growing Degree Days 28 (Base 50)    
Moisture  
Dew Point 64 °F    
Average Humidity 56    
Maximum Humidity 69    
Minimum Humidity 42    
Precipitation  
Precipitation T in 0.12 in 2.20 in (1977)
Month to date precipitation 0.55 1.78  
Year to date precipitation 19.60 21.65  
Snow  
Snow 0.00 in 0.00 in - ()
Month to date snowfall 0.0 0.0  
Since 1 June snowfall 0.0 0.0  
Since 1 July snowfall 9.8 12.5  
Snow Depth 0.00 in    
Sea Level Pressure  
Sea Level Pressure 29.80 in    
Wind  
Wind Speed 16 mph (WNW)    
Max Wind Speed 33 mph    
Max Gust Speed 44 mph    
Visibility 10 miles    
Events Rain    
T = Trace of Precipitation, MM = Missing Value Source: NWS Daily Summary

Daily Weather History Graph

Daily Weather History Graph

Search for Another Location

Airport or City:

Trip Planner

Search our weather history database for the weather conditions in past years. The results will help you decide how hot, cold, wet, or windy it might be!

Date:

Astronomy

Jun. 13, 2013 Rise Set
Actual Time 6:19 AM EDT 9:07 PM EDT
Civil Twilight 5:47 AM EDT 9:38 PM EDT
Nautical Twilight 5:08 AM EDT 10:18 PM EDT
Astronomical Twilight 4:23 AM EDT 11:03 PM EDT
Moon 10:51 AM EDT (6/13) No Moon Set
Length of Visible Light 15h 50m
Length of Day
14h 47m
Waxing Crescent, 21% of the Moon is Illuminated
Jun 13
Waxing Crescent
Jun 16
First Quarter
Jun 23
Full
Jun 30
Last Quarter
Jul 8
New

Hourly Weather History & Observations

Time (EDT) Temp. Heat Index Dew Point Humidity Pressure Visibility Wind Dir Wind Speed Gust Speed Precip Events Conditions
12:56 AM 84.0 °F 89.6 °F 72.0 °F 67% 29.78 in 10.0 mi SW 12.7 mph - N/A   Mostly Cloudy
1:56 AM 84.0 °F 89.6 °F 72.0 °F 67% 29.75 in 10.0 mi SW 17.3 mph 25.3 mph N/A   Mostly Cloudy
2:56 AM 84.0 °F 89.6 °F 72.0 °F 67% 29.73 in 10.0 mi SW 15.0 mph 23.0 mph N/A   Overcast
3:56 AM 82.9 °F 87.5 °F 71.1 °F 67% 29.71 in 10.0 mi SW 18.4 mph 27.6 mph N/A   Mostly Cloudy
4:56 AM 82.9 °F 87.0 °F 70.0 °F 65% 29.70 in 10.0 mi WSW 18.4 mph 26.5 mph N/A   Mostly Cloudy
5:56 AM 82.0 °F 85.9 °F 70.0 °F 67% 29.70 in 10.0 mi WSW 17.3 mph 25.3 mph N/A   Mostly Cloudy
6:56 AM 81.0 °F 84.4 °F 70.0 °F 69% 29.70 in 10.0 mi SW 12.7 mph - N/A   Mostly Cloudy
7:56 AM 81.0 °F 84.4 °F 70.0 °F 69% 29.70 in 10.0 mi SW 13.8 mph 23.0 mph N/A   Overcast
8:56 AM 82.9 °F 87.5 °F 71.1 °F 67% 29.68 in 10.0 mi WSW 16.1 mph - N/A   Scattered Clouds
9:56 AM 79.0 °F - 66.0 °F 64% 29.70 in 10.0 mi NW 24.2 mph 43.7 mph 0.00 in Rain Light Rain
10:56 AM 81.0 °F 82.5 °F 64.0 °F 56% 29.75 in 10.0 mi NW 21.9 mph 32.2 mph 0.00 in   Mostly Cloudy
11:56 AM 80.1 °F 81.5 °F 63.0 °F 56% 29.77 in 10.0 mi WNW 17.3 mph 27.6 mph N/A   Mostly Cloudy
12:56 PM 79.0 °F - 64.9 °F 62% 29.80 in 10.0 mi NW 17.3 mph 31.1 mph N/A   Mostly Cloudy
1:56 PM 80.1 °F 81.9 °F 64.9 °F 60% 29.81 in 10.0 mi NW 17.3 mph 26.5 mph N/A   Mostly Cloudy
2:56 PM 79.0 °F - 64.0 °F 60% 29.82 in 10.0 mi NNW 13.8 mph 20.7 mph N/A   Mostly Cloudy
3:56 PM 81.0 °F 82.5 °F 64.0 °F 56% 29.84 in 10.0 mi North 18.4 mph 23.0 mph N/A   Mostly Cloudy
4:56 PM 80.1 °F 81.2 °F 62.1 °F 54% 29.85 in 10.0 mi North 23.0 mph 28.8 mph N/A   Mostly Cloudy
5:56 PM 82.0 °F 82.0 °F 57.9 °F 44% 29.86 in 10.0 mi NNW 17.3 mph 24.2 mph N/A   Scattered Clouds
6:56 PM 80.1 °F 80.1 °F 55.0 °F 42% 29.86 in 10.0 mi NNW 15.0 mph - N/A   Scattered Clouds
7:56 PM 79.0 °F - 53.1 °F 40% 29.87 in 10.0 mi NNW 16.1 mph 24.2 mph N/A   Scattered Clouds
8:56 PM 75.9 °F - 54.0 °F 46% 29.88 in 10.0 mi NNW 15.0 mph - N/A   Partly Cloudy
9:56 PM 73.9 °F - 52.0 °F 46% 29.91 in 10.0 mi NNW 12.7 mph - N/A   Clear
10:56 PM 73.0 °F - 52.0 °F 48% 29.95 in 10.0 mi NNW 13.8 mph 21.9 mph N/A   Clear
11:56 PM 70.0 °F - 52.0 °F 53% 29.96 in 10.0 mi North 11.5 mph - N/A   Clear